Date,TemperatureHighF,TemperatureAvgF,TemperatureLowF,DewpointHighF,DewpointAvgF,DewpointLowF,HumidityHigh,HumidityAvg,HumidityLow,PressureMaxIn,PressureMinIn,WindSpeedMaxMPH,WindSpeedAvgMPH,GustSpeedMaxMPH,PrecipitationSumIn
2013-2-1,47,42,36,38,35,29,91,77,64,29.54,29.22,11,3,19,0.12
2013-2-2,44,36,32,30,28,25,79,70,51,30.02,29.55,8,2,14,0.00
2013-2-3,49,43,34,45,39,28,93,85,71,29.99,29.57,16,6,31,0.05
2013-2-4,49,44,33,45,37,29,92,77,65,29.65,29.37,23,11,34,0.32
2013-2-5,43,38,33,38,32,27,92,80,69,29.37,29.03,18,10,31,0.19
2013-2-6,44,39,36,37,30,24,87,69,53,29.94,29.22,8,4,21,0.01
2013-2-7,39,36,34,35,31,27,87,81,71,29.94,29.78,6,2,11,0.01
2013-2-8,45,40,35,39,34,31,91,81,66,29.99,29.87,8,2,14,0.01
2013-2-9,39,37,35,38,34,31,95,90,79,29.97,29.59,5,2,8,0.18
2013-2-10,38,36,34,36,33,30,91,88,81,29.58,29.07,11,5,20,0.26
2013-2-11,41,36,33,29,27,23,84,70,58,29.66,29.13,11,5,17,0.00
2013-2-12,38,34,31,28,24,22,75,67,56,29.91,29.66,6,2,10,0.00
2013-2-13,38,34,31,37,28,22,94,81,66,29.91,29.52,11,6,22,0.34
2013-2-14,47,43,39,42,40,37,95,88,81,29.75,29.46,14,5,24,0.22
2013-2-15,49,43,35,42,38,32,91,84,74,29.98,29.75,11,4,18,0.00
2013-2-16,50,40,33,40,32,-10,95,77,10,30.00,29.94,4,1,9,0.00
2013-2-17,50,40,33,37,31,24,89,72,47,29.96,29.87,8,3,16,0.01
2013-2-18,49,39,34,33,31,28,83,73,50,29.94,29.88,8,3,14,0.00
2013-2-19,54,39,30,35,31,26,89,73,41,29.93,29.85,4,1,7,0.00
2013-2-20,38,35,32,34,28,22,88,76,63,30.08,29.92,10,4,17,0.02
2013-2-21,40,34,32,23,21,18,69,58,47,30.08,30.03,12,6,23,0.00
2013-2-22,36,34,32,24,20,18,64,58,54,30.04,30.00,10,3,16,0.00
2013-2-23,39,34,32,32,27,22,83,73,64,30.10,29.98,6,1,10,0.00
2013-2-24,45,36,31,32,26,24,76,69,57,30.20,30.09,6,1,9,0.00
2013-2-25,43,38,31,34,31,24,79,75,68,30.32,30.19,9,3,19,0.00
2013-2-26,41,39,37,34,32,29,82,76,72,30.45,30.30,8,4,16,0.00
2013-2-27,52,42,34,34,30,27,78,64,42,30.45,30.36,6,2,11,0.00
2013-2-28,56,42,30,36,28,19,81,60,26,30.38,30.24,8,2,13,0.00